Canby, MN

11:15 AM CST on December 04, 2016 (GMT -0600)
Canby

Weather History for KCNB - January, 2012

Change the Weather History Date:

Monday, January 2, 2012

  Actual Average (KMML) Record (KMML)
Temperature  
Mean Temperature 14 °F -  
Max Temperature 21 °F 25 °F 48 °F (1998)
Min Temperature 8 °F 5 °F -27 °F (1974)
Degree Days  
Heating Degree Days 50    
Moisture  
Dew Point 8 °F    
Average Humidity 69    
Maximum Humidity 85    
Minimum Humidity 58    
Precipitation  
Precipitation 0.00 in - - ()
Sea Level Pressure  
Sea Level Pressure 30.53 in    
Wind  
Wind Speed 14 mph (NW)    
Max Wind Speed 20 mph    
Max Gust Speed 26 mph    
Visibility 10 miles    
Events      
Averages and records for this station are not official NWS values.
T = Trace of Precipitation, MM = Missing Value Source: NWS Daily Summary

Daily Weather History Graph

Daily Weather History Graph

Search for Another Location

Airport or City:

Trip Planner

Search our weather history database for the weather conditions in past years. The results will help you decide how hot, cold, wet, or windy it might be!

Date:

Astronomy

Jan. 02, 2012 Rise Set
Actual Time 8:02 AM CST 4:55 PM CST
Civil Twilight 7:28 AM CST 5:29 PM CST
Nautical Twilight 6:52 AM CST 6:05 PM CST
Astronomical Twilight 6:16 AM CST 6:41 PM CST
Moon 12:18 PM CST (1/2) 1:49 AM CST (1/2)
Length of Visible Light 10h 00m
Length of Day
8h 53m
Waxing Gibbous, 64% of the Moon is Illuminated
Jan 2
Waxing Gibbous
Jan 9
Full
Jan 16
Last Quarter
Jan 23
New
Jan 30
First Quarter

Hourly Weather History & Observations

Time (CST) Temp. Windchill Dew Point Humidity Pressure Visibility Wind Dir Wind Speed Gust Speed Precip Events Conditions
12:05 AM 19.4 °F 4.1 °F 10.4 °F 68% 30.47 in 10.0 mi NW 18.4 mph 25.3 mph N/A   Clear
12:25 AM 19.4 °F 5.5 °F 10.4 °F 68% 30.47 in 10.0 mi NW 15.0 mph 21.9 mph N/A   Clear
1:05 AM 19.4 °F 5.0 °F 8.6 °F 63% 30.47 in 10.0 mi NW 16.1 mph 23.0 mph N/A   Clear
1:45 AM 19.4 °F 4.5 °F 8.6 °F 63% 30.47 in 10.0 mi NW 17.3 mph 23.0 mph N/A   Clear
2:05 AM 19.4 °F 4.5 °F 8.6 °F 63% 30.47 in 10.0 mi WNW 17.3 mph 25.3 mph N/A   Clear
2:25 AM 19.4 °F 4.5 °F 8.6 °F 63% 30.46 in 10.0 mi WNW 17.3 mph 23.0 mph N/A   Clear
2:45 AM 19.4 °F 3.6 °F 8.6 °F 63% 30.47 in 10.0 mi WNW 19.6 mph 25.3 mph N/A   Clear
3:05 AM 17.6 °F 1.7 °F 8.6 °F 68% 30.47 in 10.0 mi WNW 18.4 mph 24.2 mph N/A   Clear
3:25 AM 17.6 °F 1.7 °F 8.6 °F 68% 30.48 in 10.0 mi WNW 18.4 mph 26.5 mph N/A   Clear
3:45 AM 17.6 °F 2.2 °F 8.6 °F 68% 30.48 in 10.0 mi WNW 17.3 mph 23.0 mph N/A   Clear
4:05 AM 17.6 °F 2.2 °F 8.6 °F 68% 30.49 in 10.0 mi NW 17.3 mph 26.5 mph N/A   Clear
4:25 AM 17.6 °F 1.7 °F 8.6 °F 68% 30.49 in 10.0 mi NW 18.4 mph 21.9 mph N/A   Clear
4:45 AM 17.6 °F 3.2 °F 8.6 °F 68% 30.50 in 10.0 mi NW 15.0 mph 25.3 mph N/A   Clear
5:05 AM 15.8 °F 0.9 °F 8.6 °F 73% 30.51 in 10.0 mi NW 15.0 mph 23.0 mph N/A   Clear
5:25 AM 15.8 °F 2.1 °F 8.6 °F 73% 30.51 in 10.0 mi NW 12.7 mph - N/A   Clear
5:45 AM 15.8 °F 1.4 °F 8.6 °F 73% 30.52 in 10.0 mi NW 13.8 mph 21.9 mph N/A   Clear
6:05 AM 14.0 °F -0.8 °F 8.6 °F 79% 30.52 in 10.0 mi NW 13.8 mph 19.6 mph N/A   Clear
6:25 AM 14.0 °F -0.8 °F 8.6 °F 79% 30.53 in 10.0 mi NW 13.8 mph 20.7 mph N/A   Clear
6:45 AM 14.0 °F -0.2 °F 8.6 °F 79% 30.54 in 10.0 mi NW 12.7 mph 20.7 mph N/A   Clear
7:05 AM 14.0 °F 0.5 °F 6.8 °F 73% 30.54 in 10.0 mi NW 11.5 mph 20.7 mph N/A   Clear
7:25 AM 12.2 °F -2.5 °F 6.8 °F 79% 30.55 in 10.0 mi NW 12.7 mph - N/A   Clear
7:45 AM 12.2 °F -2.5 °F 6.8 °F 79% 30.55 in 10.0 mi NW 12.7 mph 18.4 mph N/A   Clear
8:05 AM 12.2 °F -2.5 °F 6.8 °F 79% 30.56 in 10.0 mi NW 12.7 mph - N/A   Clear
9:05 AM 14.0 °F -2.0 °F 6.8 °F 73% 30.58 in 10.0 mi NW 16.1 mph 23.0 mph N/A   Clear
9:25 AM 14.0 °F -3.4 °F 6.8 °F 73% 30.58 in 10.0 mi NW 19.6 mph 26.5 mph N/A   Clear
9:45 AM 14.0 °F -2.5 °F 6.8 °F 73% 30.59 in 10.0 mi NNW 17.3 mph 24.2 mph N/A   Clear
10:05 AM 15.8 °F -0.6 °F 6.8 °F 68% 30.60 in 10.0 mi NNW 18.4 mph 23.0 mph N/A   Clear
10:25 AM 15.8 °F 0.3 °F 6.8 °F 68% 30.60 in 10.0 mi NW 16.1 mph - N/A   Clear
10:45 AM 15.8 °F -0.6 °F 6.8 °F 68% 30.60 in 10.0 mi NNW 18.4 mph 23.0 mph N/A   Clear
11:05 AM 17.6 °F 2.7 °F 6.8 °F 63% 30.60 in 10.0 mi NNW 16.1 mph 21.9 mph N/A   Clear
11:25 AM 17.6 °F 2.7 °F 6.8 °F 63% 30.59 in 10.0 mi NNW 16.1 mph 20.7 mph N/A   Clear
11:45 AM 17.6 °F 2.7 °F 6.8 °F 63% 30.59 in 10.0 mi NNW 16.1 mph 23.0 mph N/A   Clear
12:05 PM 17.6 °F 3.2 °F 6.8 °F 63% 30.59 in 10.0 mi NW 15.0 mph - N/A   Clear
12:25 PM 17.6 °F 3.7 °F 6.8 °F 63% 30.58 in 10.0 mi NNW 13.8 mph 20.7 mph N/A   Clear
12:45 PM 19.4 °F 5.0 °F 6.8 °F 58% 30.58 in 10.0 mi NNW 16.1 mph 19.6 mph N/A   Clear
1:05 PM 19.4 °F 5.5 °F 8.6 °F 63% 30.57 in 10.0 mi NNW 15.0 mph - N/A   Clear
1:25 PM 19.4 °F 7.2 °F 8.6 °F 63% 30.57 in 10.0 mi NW 11.5 mph - N/A   Clear
2:05 PM 19.4 °F 6.0 °F 6.8 °F 58% 30.56 in 10.0 mi NNW 13.8 mph - N/A   Clear
2:25 PM 21.2 °F 8.9 °F 8.6 °F 58% 30.55 in 10.0 mi NW 12.7 mph - N/A   Clear
2:45 PM 21.2 °F 8.9 °F 8.6 °F 58% 30.55 in 10.0 mi NNW 12.7 mph 16.1 mph N/A   Clear
3:05 PM 21.2 °F 9.5 °F 8.6 °F 58% 30.54 in 10.0 mi NNW 11.5 mph 17.3 mph N/A   Clear
3:25 PM 21.2 °F 10.9 °F 8.6 °F 58% 30.54 in 10.0 mi NNW 9.2 mph - N/A   Clear
3:45 PM 21.2 °F 11.7 °F 8.6 °F 58% 30.54 in 10.0 mi NW 8.1 mph - N/A   Clear
4:05 PM 21.2 °F 12.6 °F 8.6 °F 58% 30.54 in 10.0 mi NNW 6.9 mph - N/A   Clear
4:25 PM 19.4 °F 11.5 °F 8.6 °F 63% 30.53 in 10.0 mi NW 5.8 mph - N/A   Clear
4:45 PM 17.6 °F 10.7 °F 8.6 °F 68% 30.53 in 10.0 mi NW 4.6 mph - N/A   Clear
5:05 PM 15.8 °F 7.2 °F 6.8 °F 68% 30.53 in 10.0 mi WNW 5.8 mph - N/A   Clear
5:25 PM 14.0 °F 5.1 °F 6.8 °F 73% 30.52 in 10.0 mi WNW 5.8 mph - N/A   Clear
5:45 PM 14.0 °F 8.2 °F 6.8 °F 73% 30.52 in 10.0 mi West 3.5 mph - N/A   Clear
6:05 PM 14.0 °F 8.2 °F 6.8 °F 73% 30.51 in 10.0 mi West 3.5 mph - N/A   Clear
6:25 PM 12.2 °F - 6.8 °F 79% 30.50 in 10.0 mi Calm Calm - N/A   Clear
6:45 PM 14.0 °F - 6.8 °F 73% 30.49 in 10.0 mi Calm Calm - N/A   Clear
7:05 PM 12.2 °F - 6.8 °F 79% 30.49 in 10.0 mi Calm Calm - N/A   Clear
7:25 PM 10.4 °F - 6.8 °F 85% 30.49 in 10.0 mi Calm Calm - N/A   Clear
7:45 PM 12.2 °F - 6.8 °F 79% 30.48 in 10.0 mi Calm Calm - N/A   Clear
8:05 PM 8.6 °F 2.0 °F 5.0 °F 85% 30.47 in 10.0 mi SW 3.5 mph - N/A   Clear
8:25 PM 8.6 °F - 5.0 °F 85% 30.46 in 10.0 mi Calm Calm - N/A   Clear
8:45 PM 8.6 °F - 5.0 °F 85% 30.45 in 10.0 mi Calm Calm - N/A   Clear
9:05 PM 8.6 °F - 5.0 °F 85% 30.45 in 10.0 mi Calm Calm - N/A   Clear
9:25 PM 8.6 °F - 5.0 °F 85% 30.44 in 10.0 mi Calm Calm - N/A   Clear
9:45 PM 10.4 °F - 5.0 °F 79% 30.43 in 10.0 mi Calm Calm - N/A   Clear
10:05 PM 8.6 °F - 5.0 °F 85% 30.43 in 10.0 mi Calm Calm - N/A   Clear
10:25 PM 6.8 °F - 5.0 °F 92% 30.43 in 10.0 mi Calm Calm - N/A   Clear
10:45 PM 6.8 °F -2.0 °F 5.0 °F 92% 30.42 in 10.0 mi SE 4.6 mph - N/A   Clear
11:05 PM 8.6 °F -1.3 °F 5.0 °F 85% 30.42 in 10.0 mi SSE 5.8 mph - N/A   Clear
11:25 PM 8.6 °F -1.3 °F 5.0 °F 85% 30.39 in 10.0 mi South 5.8 mph - N/A   Clear
11:45 PM 10.4 °F - 5.0 °F 79% 30.39 in 10.0 mi Calm Calm - N/A   Clear